Location: Springfield
(37.2150°N, 93.2980°W)
Time: 15:31:56
(UTC-05:00)

Cosmos 2366 rocket - Pass Details

Date: 19 April 2018
Orbit: 956 x 996 km, 82.9° (Epoch: 18 September)

Event Time Altitude Azimuth Distance (km) Brightness Sun altitude
Exits shadow 21:28:04 26° 147° (SSE) 1,795 4.9 -18.4°
Maximum altitude 21:31:09 46° 90° (E) 1,283 4.2 -18.9°
Drops below altitude 10° 21:37:05 10° 19° (NNE) 2,738 6.5 -19.9°
Sets 21:39:42 0° 14° (NNE) 3,696 7.3 -20.4°
